#timestamp,LO_Frequency,Hit,StdDev 
1552370415.5,286047000.0,N
1552370435.3,286047000.3,N
1552370455.2,286047000.0,N
1552370475.9,286047000.3,N
1552370495.7,286046999.9,N
1552370515.6,286046999.8,N
1552370535.4,286047001.1,N
1552370555.2,286047001.1,N
1552370575.0,286047000.5,N
1552370575.9,286047000.5,N
1552370595.8,286047000.4,N
1552370615.6,286047000.5,N
1552370635.4,286047000.3,N
1552370655.3,286047000.3,N
1552370675.1,286047000.4,N
1552370695.8,286047000.4,N
1552370715.7,286047000.3,N
1552370735.5,286047000.3,N
1552370755.3,286047000.3,N
1552370775.2,286047000.4,N
1552370795.9,286047000.4,N
1552370815.7,286047001.1,N
1552370835.6,286047000.5,N
1552370855.4,286047000.4,N
1552370875.2,286047000.4,N
1552370895.0,286047000.4,N
1552370896.0,286047000.4,N
1552370915.8,286047000.4,N
1552370935.6,286047000.5,N
1552370955.4,286047000.6,N
1552370975.3,286047000.9,N
1552370995.1,286047000.0,N
1552371015.8,286047000.7,N
1552371035.7,286047000.7,N
1552371055.5,286047000.7,N
1552371075.3,286047000.8,N
1552371095.2,286047000.4,N
1552371115.9,286047000.7,N
1552371135.7,286047000.8,Y
1552371155.6,286046998.5,P
1552371175.4,286047000.7,N
1552371195.2,286046998.2,N
1552371215.1,286046998.1,N
1552371216.0,286046998.1,N
1552371235.8,286047001.1,N
1552371255.6,286047000.8,N
1552371275.5,286047000.8,N
1552371295.3,286047000.8,N
1552371315.1,286047000.8,N
1552371335.8,286047001.1,N
1552371355.7,286047000.8,N
1552371375.5,286047000.8,N
1552371395.3,286047000.7,N
1552371415.2,286047000.3,N
1552371435.0,286047001.0,N
1552371435.9,286047001.0,N
1552371455.7,286047000.0,N
1552371475.6,286047000.9,N
1552371495.4,286047001.0,N
1552371515.2,286047000.7,N
1552371535.1,286046999.9,N
1552371536.0,286046999.9,N
1552371555.8,286046999.8,N
1552371575.6,286047000.0,N
1552371595.5,286047002.8,N
1552371615.3,286047002.8,N
1552371635.1,286047002.6,N
1552371655.8,286046999.7,N
1552371675.7,286047002.8,N
1552371695.5,286047002.7,N
1552371715.3,286047002.4,N
1552371735.2,286047002.6,N
1552371755.9,286047002.5,N
1552371775.7,286047002.6,N
1552371795.6,286047002.3,N
1552371815.4,286047001.9,N
1552371835.2,286047002.6,N
1552371855.1,286046999.8,N
1552371856.0,286046999.8,N
1552371875.8,286047002.5,N
1552371895.6,286046999.8,N
1552371915.5,286046999.8,N
1552371935.3,286047002.6,N
1552371955.1,286047000.1,N
1552371975.9,286047000.2,N
1552371995.7,286047000.2,N
1552372015.5,286047000.2,N
1552372035.3,286046999.9,N
1552372055.2,286047002.7,N
1552372075.0,286047002.8,N
1552372075.9,286047002.8,N
1552372095.7,286047002.8,N
1552372115.6,286047000.4,N
1552372135.4,286047000.3,N
1552372155.2,286047002.8,N
1552372175.1,286047002.8,N
1552372176.0,286047002.8,N
1552372195.8,286046999.7,N
1552372215.6,286047000.4,N
1552372235.5,286047000.5,N
1552372255.3,286047000.6,N
1552372275.1,286047000.5,N
1552372295.9,286046999.9,N
1552372315.7,286047000.0,N
1552372335.5,286047000.7,N
1552372355.3,286047000.4,N
1552372375.2,286047001.1,N
1552372395.0,286047000.6,N
1552372395.9,286047000.6,N
1552372415.7,286046998.2,N
1552372435.6,286046998.2,N
1552372455.4,286047000.8,N
1552372475.2,286047000.8,N
1552372495.1,286046998.4,N
1552372496.0,286046998.4,N
1552372515.8,286046998.8,N
1552372535.6,286046998.2,N
1552372555.5,286046998.6,N
1552372575.3,286046999.0,N
1552372595.1,286046999.4,N
1552372615.9,286046999.2,N
1552372635.7,286046999.5,N
1552372655.5,286046996.5,N
1552372675.4,286046999.5,N
1552372695.2,286046999.4,N
1552372715.0,286046996.9,N
1552372715.9,286046996.9,N
1552372735.8,286046996.7,N
1552372755.6,286046997.1,N
1552372775.4,286046996.6,N
1552372795.2,286046997.0,N
1552372815.1,286046997.1,N
1552372816.0,286046997.1,N
1552372835.8,286046997.1,N
1552372855.6,286046997.2,N
1552372875.5,286046997.3,N
1552372895.3,286046997.8,N
1552372915.1,286046995.4,Y
1552372935.9,286046996.9,P
1552372955.7,286046996.8,P
1552372975.5,286046997.2,P
1552372995.4,286046997.4,Y
1552373015.2,286047001.0,P
1552373035.0,286046998.6,N
1552373035.9,286046998.6,N
1552373055.8,286046998.3,N
1552373075.6,286047001.2,N
1552373095.4,286046998.1,N
1552373115.3,286046998.7,N
1552373135.1,286046999.3,N
1552373136.0,286046999.3,N
1552373155.8,286046999.4,N
1552373175.7,286046998.8,N
1552373195.5,286046999.5,N
1552373215.3,286046999.1,N
1552373235.2,286046999.2,N
1552373255.9,286046996.7,Y
1552373275.7,286046999.2,P
1552373295.6,286046999.6,P
1552373315.4,286046996.6,P
1552373335.2,286046996.9,N
1552373355.1,286046999.2,N
1552373356.0,286046999.2,N
1552373375.8,286046996.8,N
1552373395.6,286046997.2,N
1552373415.4,286046996.9,N
1552373435.3,286046997.7,N
1552373455.1,286046997.8,N
1552373475.8,286046997.6,N
1552373495.7,286046997.3,N
1552373515.5,286046997.7,N
1552373535.3,286046995.3,Y
1552373555.2,286046998.9,P
1552373575.0,286046996.5,P
1552373575.9,286046996.5,P
1552373595.7,286046996.9,Y
1552373615.6,286047000.6,P
1552373635.4,286047000.6,N
1552373655.2,286047000.3,N
1552373675.1,286046998.6,N
1552373676.0,286046998.6,N
1552373695.8,286047000.9,N
1552373715.6,286046998.6,N
1552373735.5,286046998.7,N
1552373755.3,286046998.5,N
1552373775.1,286046998.3,N
1552373795.9,286046998.8,N
1552373815.7,286046998.3,N
1552373835.5,286046998.9,N
1552373855.4,286046996.5,Y
1552373875.2,286046998.4,P
1552373895.0,286046999.0,P
1552373895.9,286046999.0,P
1552373915.8,286046999.3,N
1552373935.6,286046999.1,Y
1552373955.4,286046998.2,P
1552373975.3,286047001.1,N
1552373995.1,286046998.4,N
1552373996.0,286046998.4,N
